contact:dominique.lefevre@mio.osupytheas.fr, maurice.libes@osupytheas.fr, didier.mallarino@osupytheas.fr
Project:EMSO http://www.emso-fr.org/EMSO-France
Depth: 2436.0 m
Title:EMSO Ligure Ouest : Data MII capteur AQUADOPP
Date,Latitude,Longitude,X_East,Y_North,Z_Up,Amplitude_X,Amplitude_Y,Amplitude_Z,Batterie,SoundSpeed,Heading,Pitch,Roll,Pressure,TIS,Speed,Direction
, degrees North, degrees East, m.s-1, m.s-1,m.s-1, 1, 1, 1, Volt, m.s-1, degree, degree, degree, dbar, degree_C, m.s-1, degree
2019-08-14T00:01:44,42.805,6.029,-0.021,-0.002,-0.029,101.0,102.0,98.0,13.3,1505.3,325.5,-0.7,1.8,2470.022,13.33,0.021,264.6
2019-08-14T00:04:45,42.805,6.029,-0.01,-0.001,-0.024,100.0,104.0,99.0,13.3,1505.3,325.6,-0.7,1.8,2470.028,13.33,0.01,264.3
2019-08-14T00:07:46,42.805,6.029,-0.001,0.007,-0.018,101.0,104.0,98.0,13.3,1505.3,324.7,-0.7,1.8,2470.047,13.33,0.007,351.9
2019-08-14T00:10:47,42.805,6.029,-0.025,-0.01,-0.055,101.0,102.0,98.0,13.4,1505.3,327.0,-0.7,1.8,2470.034,13.33,0.026,248.2
2019-08-14T00:13:48,42.805,6.029,-0.017,-0.01,-0.058,102.0,103.0,97.0,13.4,1505.3,327.8,-0.7,1.8,2470.028,13.33,0.019,239.5
2019-08-14T00:16:49,42.805,6.029,0.02,-0.018,0.008,102.0,103.0,97.0,13.4,1505.3,326.4,-0.7,1.8,2470.032,13.33,0.026,132.0
2019-08-14T00:19:50,42.805,6.029,-0.015,-0.001,-0.031,102.0,101.0,98.0,13.3,1505.3,328.1,-0.7,1.8,2470.008,13.33,0.015,266.2
2019-08-14T00:22:51,42.805,6.029,-0.012,-0.021,-0.013,102.0,103.0,98.0,13.3,1505.3,325.1,-0.7,1.9,2470.036,13.33,0.024,209.7
2019-08-14T00:25:52,42.805,6.029,-0.028,-0.014,-0.043,101.0,103.0,98.0,13.4,1505.3,325.0,-0.7,1.8,2470.048,13.33,0.031,243.4
2019-08-14T00:28:53,42.805,6.029,-0.033,-0.032,-0.069,101.0,103.0,99.0,13.4,1505.3,324.1,-0.7,1.8,2469.992,13.33,0.045,225.9
2019-08-14T00:31:54,42.805,6.029,0.012,-0.003,-0.034,101.0,103.0,98.0,13.4,1505.3,326.1,-0.7,1.9,2470.004,13.33,0.012,104.0
2019-08-14T00:34:55,42.805,6.029,-0.036,-0.021,-0.033,100.0,103.0,98.0,13.4,1505.3,324.5,-0.7,1.8,2470.026,13.33,0.041,239.7
2019-08-14T00:37:56,42.805,6.029,-0.027,0.011,-0.01,101.0,102.0,98.0,13.4,1505.3,325.2,-0.7,1.8,2469.987,13.33,0.029,292.2
2019-08-14T00:40:57,42.805,6.029,-0.016,-0.013,-0.004,101.0,102.0,98.0,13.3,1505.3,328.2,-0.7,1.8,2470.023,13.33,0.02,230.9
2019-08-14T00:43:58,42.805,6.029,0.005,0.006,-0.005,101.0,103.0,98.0,13.4,1505.3,326.6,-0.7,1.8,2470.006,13.33,0.007,39.8
2019-08-14T00:46:59,42.805,6.029,-0.016,0.016,-0.014,98.0,103.0,99.0,13.3,1505.3,328.5,-0.7,1.8,2470.022,13.33,0.022,315.0
2019-08-14T00:50:00,42.805,6.029,-0.011,-0.016,-0.039,102.0,105.0,99.0,13.4,1505.3,324.7,-0.7,1.9,2470.019,13.33,0.019,214.5
2019-08-14T00:53:01,42.805,6.029,-0.007,-0.006,-0.041,101.0,106.0,98.0,13.3,1505.3,324.8,-0.7,1.8,2470.012,13.33,0.009,229.4
2019-08-14T00:56:02,42.805,6.029,-0.016,0.007,-0.016,100.0,103.0,98.0,13.4,1505.3,326.2,-0.7,1.8,2470.014,13.33,0.017,293.6
2019-08-14T00:59:03,42.805,6.029,-0.027,-0.017,-0.038,100.0,103.0,97.0,13.3,1505.3,327.0,-0.7,1.8,2470.002,13.33,0.031,237.8
2019-08-14T01:02:04,42.805,6.029,0.019,0.023,-0.013,100.0,102.0,98.0,13.3,1505.3,326.2,-0.7,1.9,2469.99,13.33,0.029,39.6
2019-08-14T01:05:05,42.805,6.029,0.016,-0.005,0.008,100.0,103.0,98.0,13.3,1505.3,324.7,-0.7,1.8,2470.037,13.33,0.016,107.4
2019-08-14T01:08:06,42.805,6.029,-0.007,0.006,-0.003,102.0,102.0,97.0,13.4,1505.3,325.2,-0.7,1.8,2469.976,13.33,0.009,310.6
2019-08-14T01:11:07,42.805,6.029,-0.029,-0.019,-0.029,100.0,103.0,98.0,13.3,1505.3,326.0,-0.7,1.8,2470.043,13.33,0.034,236.8
2019-08-14T01:14:08,42.805,6.029,-0.022,-0.03,-0.042,100.0,102.0,99.0,13.4,1505.3,325.6,-0.7,1.8,2469.993,13.33,0.037,216.3
2019-08-14T01:17:09,42.805,6.029,-0.038,-0.023,-0.046,99.0,104.0,98.0,13.3,1505.3,323.2,-0.7,1.8,2470.026,13.33,0.044,238.8
2019-08-14T01:20:10,42.805,6.029,-0.024,-0.015,-0.035,102.0,104.0,98.0,13.3,1505.3,327.6,-0.7,1.8,2470.0,13.33,0.028,238.0
2019-08-14T01:23:11,42.805,6.029,-0.015,-0.017,-0.01,100.0,103.0,99.0,13.4,1505.3,323.9,-0.7,1.8,2469.993,13.33,0.022,221.4
2019-08-14T01:26:12,42.805,6.029,-0.013,-0.006,-0.043,100.0,106.0,97.0,13.4,1505.3,323.4,-0.7,1.9,2469.998,13.33,0.014,245.2
2019-08-14T01:29:13,42.805,6.029,-0.001,0.002,-0.018,102.0,104.0,98.0,13.4,1505.3,328.1,-0.7,1.8,2469.999,13.33,0.002,333.4
2019-08-14T01:32:14,42.805,6.029,-0.004,-0.005,0.003,102.0,103.0,98.0,13.3,1505.3,328.2,-0.7,1.8,2469.988,13.33,0.006,218.7
2019-08-14T01:35:15,42.805,6.029,-0.02,-0.02,-0.016,101.0,106.0,98.0,13.4,1505.3,326.0,-0.7,1.8,2469.99,13.33,0.028,225.0
2019-08-14T01:38:16,42.805,6.029,-0.044,0.009,-0.029,102.0,107.0,97.0,13.4,1505.3,327.9,-0.7,1.8,2470.057,13.33,0.044,281.6
2019-08-14T01:41:17,42.805,6.029,-0.042,0.003,-0.02,103.0,106.0,97.0,13.4,1505.3,325.2,-0.7,1.8,2469.94,13.33,0.042,274.1
2019-08-14T01:44:18,42.805,6.029,-0.026,0.014,-0.003,100.0,104.0,98.0,13.4,1505.3,324.9,-0.7,1.8,2470.016,13.33,0.029,298.3
2019-08-14T01:47:19,42.805,6.029,0.0,0.004,-0.057,102.0,104.0,99.0,13.4,1505.3,324.7,-0.8,1.8,2469.992,13.33,0.004,0.0
2019-08-14T01:50:20,42.805,6.029,-0.007,-0.008,-0.028,101.0,105.0,100.0,13.4,1505.3,326.2,-0.7,1.9,2469.973,13.33,0.01,221.2
2019-08-14T01:53:21,42.805,6.029,-0.017,-0.019,-0.025,100.0,106.0,97.0,13.3,1505.3,324.5,-0.7,1.8,2470.01,13.33,0.025,221.8
2019-08-14T01:56:22,42.805,6.029,-0.022,-0.01,-0.049,102.0,102.0,97.0,13.4,1505.3,327.5,-0.7,1.8,2469.973,13.33,0.024,245.6
2019-08-14T01:59:23,42.805,6.029,-0.027,0.003,-0.017,100.0,103.0,100.0,13.4,1505.3,324.2,-0.7,1.8,2469.983,13.33,0.027,276.3
2019-08-14T02:02:24,42.805,6.029,-0.01,0.006,-0.001,101.0,103.0,97.0,13.4,1505.3,325.6,-0.7,1.8,2469.991,13.33,0.011,301.0
2019-08-14T02:05:25,42.805,6.029,-0.03,0.012,-0.021,101.0,102.0,97.0,13.4,1505.3,326.9,-0.7,1.9,2469.986,13.33,0.032,291.8
2019-08-14T02:08:26,42.805,6.029,-0.033,0.004,-0.037,101.0,103.0,97.0,13.3,1505.3,327.4,-0.7,1.9,2470.026,13.33,0.033,276.9
2019-08-14T02:11:27,42.805,6.029,0.001,-0.002,0.026,100.0,105.0,97.0,13.4,1505.3,324.9,-0.7,1.8,2470.018,13.33,0.002,153.4
2019-08-14T02:14:28,42.805,6.029,-0.06,0.002,-0.017,101.0,103.0,97.0,13.4,1505.3,324.3,-0.8,1.9,2470.025,13.33,0.06,271.9
2019-08-14T02:17:29,42.805,6.029,-0.026,0.011,0.02,100.0,104.0,97.0,13.4,1505.3,323.9,-0.7,1.9,2470.013,13.33,0.028,292.9
2019-08-14T02:20:30,42.805,6.029,-0.034,-0.008,-0.024,99.0,105.0,97.0,13.4,1505.3,324.5,-0.7,1.8,2470.068,13.33,0.034,256.8
2019-08-14T02:23:31,42.805,6.029,-0.024,0.004,-0.008,101.0,103.0,98.0,13.4,1505.3,327.6,-0.7,1.8,2469.995,13.33,0.024,279.5
2019-08-14T02:26:32,42.805,6.029,-0.016,0.01,-0.045,101.0,103.0,98.0,13.3,1505.3,325.0,-0.7,1.8,2469.934,13.33,0.018,302.0
2019-08-14T02:29:33,42.805,6.029,0.012,-0.002,0.022,101.0,104.0,97.0,13.4,1505.3,326.4,-0.7,1.8,2470.053,13.33,0.012,99.5
2019-08-14T02:32:34,42.805,6.029,-0.044,0.006,-0.034,100.0,104.0,99.0,13.3,1505.3,324.3,-0.7,1.8,2470.008,13.33,0.044,277.8
2019-08-14T02:35:35,42.805,6.029,-0.018,0.011,-0.033,101.0,104.0,98.0,13.4,1505.3,323.3,-0.7,1.8,2469.987,13.33,0.021,301.4
2019-08-14T02:38:36,42.805,6.029,0.01,-0.012,-0.062,101.0,103.0,97.0,13.4,1505.3,324.9,-0.7,1.8,2470.019,13.33,0.015,140.2
2019-08-14T02:41:37,42.805,6.029,0.005,-0.01,-0.023,101.0,103.0,98.0,13.3,1505.3,326.3,-0.7,1.8,2470.025,13.33,0.011,153.4
2019-08-14T02:44:38,42.805,6.029,-0.003,0.009,-0.011,99.0,104.0,99.0,13.4,1505.3,324.4,-0.7,1.8,2469.997,13.33,0.009,341.6
2019-08-14T02:47:39,42.805,6.029,-0.017,-0.001,-0.041,102.0,104.0,97.0,13.3,1505.3,324.4,-0.7,1.8,2470.009,13.33,0.017,266.6
2019-08-14T02:50:40,42.805,6.029,-0.015,-0.01,-0.025,101.0,103.0,97.0,13.4,1505.3,328.5,-0.8,1.8,2470.03,13.33,0.018,236.3
2019-08-14T02:53:41,42.805,6.029,-0.019,-0.002,-0.026,102.0,104.0,96.0,13.4,1505.3,324.8,-0.8,1.8,2470.009,13.33,0.019,264.0
2019-08-14T02:56:42,42.805,6.029,-0.051,-0.002,-0.039,100.0,104.0,97.0,13.4,1505.3,325.0,-0.7,1.8,2470.03,13.33,0.051,267.8
2019-08-14T02:59:43,42.805,6.029,-0.024,-0.005,-0.04,101.0,107.0,97.0,13.4,1505.3,324.3,-0.7,1.8,2470.044,13.33,0.024,258.2
2019-08-14T03:02:44,42.805,6.029,0.0,0.0,0.024,101.0,105.0,97.0,13.3,1505.3,326.1,-0.7,1.9,2470.006,13.33,0.0,0.0
2019-08-14T03:05:45,42.805,6.029,-0.036,0.019,-0.047,101.0,106.0,98.0,13.3,1505.3,326.9,-0.7,1.8,2469.999,13.33,0.04,297.8
2019-08-14T03:08:46,42.805,6.029,-0.037,-0.009,-0.024,100.0,104.0,99.0,13.3,1505.3,324.7,-0.7,1.8,2469.987,13.33,0.038,256.3
2019-08-14T03:11:47,42.805,6.029,0.0,-0.014,-0.031,101.0,106.0,98.0,13.4,1505.3,325.8,-0.7,1.8,2470.062,13.33,0.014,180.0
2019-08-14T03:14:48,42.805,6.029,-0.016,0.0,-0.034,100.0,103.0,99.0,13.4,1505.3,325.5,-0.7,1.8,2470.025,13.33,0.016,270.0
2019-08-14T03:17:49,42.805,6.029,-0.021,0.011,0.0,99.0,104.0,98.0,13.3,1505.3,327.0,-0.7,1.8,2470.091,13.33,0.023,297.6
2019-08-14T03:20:50,42.805,6.029,-0.021,0.01,-0.039,101.0,103.0,98.0,13.4,1505.3,327.6,-0.8,1.8,2470.035,13.33,0.023,295.5
2019-08-14T03:23:51,42.805,6.029,-0.044,0.003,-0.024,99.0,106.0,98.0,13.4,1505.3,326.3,-0.7,1.8,2470.049,13.33,0.044,273.9
2019-08-14T03:26:52,42.805,6.029,-0.031,-0.003,-0.001,102.0,106.0,97.0,13.4,1505.3,325.5,-0.7,1.8,2470.016,13.33,0.031,264.5
2019-08-14T03:29:53,42.805,6.029,-0.013,-0.006,-0.046,99.0,106.0,99.0,13.4,1505.3,325.8,-0.7,1.8,2470.032,13.33,0.014,245.2
2019-08-14T03:32:54,42.805,6.029,-0.014,0.0,-0.013,101.0,104.0,99.0,13.4,1505.3,323.2,-0.7,1.9,2470.011,13.33,0.014,270.0
2019-08-14T03:35:55,42.805,6.029,-0.007,-0.025,0.002,101.0,104.0,100.0,13.4,1505.3,324.5,-0.7,1.8,2469.989,13.33,0.025,195.6
2019-08-14T03:38:56,42.805,6.029,-0.022,0.002,-0.046,101.0,105.0,98.0,13.4,1505.3,325.9,-0.7,1.8,2470.048,13.33,0.022,275.2
2019-08-14T03:41:57,42.805,6.029,-0.06,-0.007,0.001,101.0,104.0,98.0,13.3,1505.3,324.3,-0.7,1.8,2470.04,13.33,0.06,263.3
2019-08-14T03:44:58,42.805,6.029,-0.017,-0.002,-0.002,103.0,102.0,98.0,13.4,1505.3,326.7,-0.7,1.8,2470.016,13.33,0.017,263.3
2019-08-14T03:47:59,42.805,6.029,-0.011,-0.019,-0.034,101.0,106.0,98.0,13.4,1505.3,323.7,-0.7,1.9,2470.059,13.33,0.021,210.1
2019-08-14T03:51:00,42.805,6.029,0.029,-0.005,0.007,103.0,104.0,99.0,13.4,1505.3,323.8,-0.7,1.8,2470.009,13.33,0.029,99.8
2019-08-14T03:54:01,42.805,6.029,-0.011,-0.008,-0.033,103.0,104.0,99.0,13.4,1505.3,328.3,-0.7,1.9,2470.026,13.33,0.013,234.0
2019-08-14T03:57:02,42.805,6.029,-0.023,-0.002,0.02,101.0,106.0,99.0,13.4,1505.3,327.9,-0.7,1.8,2470.084,13.33,0.023,265.0
2019-08-14T04:00:03,42.805,6.029,-0.023,0.006,-0.022,101.0,104.0,98.0,13.3,1505.3,327.8,-0.7,1.8,2470.047,13.33,0.023,284.6
2019-08-14T04:03:04,42.805,6.029,-0.003,0.015,-0.007,104.0,105.0,98.0,13.4,1505.3,327.5,-0.7,1.8,2470.05,13.33,0.015,348.7
2019-08-14T04:06:05,42.805,6.029,0.004,-0.005,0.005,103.0,107.0,99.0,13.3,1505.3,324.5,-0.7,1.8,2470.079,13.33,0.006,141.3
2019-08-14T04:09:06,42.805,6.029,-0.046,0.0,-0.029,103.0,105.0,99.0,13.4,1505.3,324.7,-0.7,1.9,2470.064,13.33,0.046,270.0
2019-08-14T04:12:07,42.805,6.029,-0.016,-0.004,-0.04,101.0,104.0,100.0,13.3,1505.3,326.4,-0.7,1.8,2470.03,13.33,0.016,256.0
2019-08-14T04:15:08,42.805,6.029,-0.023,-0.002,-0.022,103.0,104.0,98.0,13.4,1505.3,328.1,-0.7,1.8,2470.041,13.33,0.023,265.0
2019-08-14T04:18:09,42.805,6.029,-0.033,-0.014,-0.027,102.0,105.0,98.0,13.3,1505.3,326.2,-0.7,1.8,2470.089,13.33,0.035,247.0
2019-08-14T04:21:10,42.805,6.029,-0.005,-0.005,-0.004,103.0,104.0,98.0,13.3,1505.3,325.7,-0.7,1.8,2470.072,13.33,0.007,225.0
2019-08-14T04:24:11,42.805,6.029,-0.034,-0.007,-0.018,102.0,105.0,99.0,13.4,1505.3,323.5,-0.7,1.8,2470.049,13.33,0.034,258.4
2019-08-14T04:27:12,42.805,6.029,-0.031,0.006,-0.035,103.0,104.0,99.0,13.4,1505.3,327.6,-0.7,1.8,2470.046,13.33,0.031,281.0
2019-08-14T04:30:13,42.805,6.029,-0.027,-0.007,-0.01,102.0,106.0,100.0,13.4,1505.3,325.8,-0.7,1.8,2470.06,13.33,0.027,255.5
2019-08-14T04:33:14,42.805,6.029,-0.042,-0.013,-0.037,102.0,106.0,99.0,13.4,1505.3,324.0,-0.7,1.8,2470.063,13.33,0.043,252.8
2019-08-14T04:36:15,42.805,6.029,-0.058,0.016,-0.018,103.0,105.0,99.0,13.4,1505.3,324.3,-0.7,1.8,2470.079,13.33,0.06,285.4
2019-08-14T04:39:16,42.805,6.029,-0.03,0.011,-0.02,102.0,104.0,100.0,13.4,1505.3,326.6,-0.7,1.8,2470.084,13.33,0.031,290.1
2019-08-14T04:42:17,42.805,6.029,-0.019,0.006,-0.024,104.0,106.0,99.0,13.4,1505.3,328.3,-0.7,1.9,2470.081,13.33,0.019,287.5
2019-08-14T04:45:18,42.805,6.029,-0.03,-0.002,-0.043,102.0,105.0,99.0,13.4,1505.3,325.8,-0.7,1.8,2470.076,13.33,0.03,266.2
2019-08-14T04:48:19,42.805,6.029,-0.037,-0.001,-0.001,101.0,106.0,99.0,13.3,1505.3,324.2,-0.7,1.8,2470.084,13.33,0.037,268.5
2019-08-14T04:51:20,42.805,6.029,-0.037,-0.005,-0.024,103.0,104.0,99.0,13.3,1505.3,323.7,-0.7,1.8,2470.061,13.33,0.037,262.3
2019-08-14T04:54:21,42.805,6.029,-0.086,0.011,-0.068,104.0,105.0,100.0,13.4,1505.3,328.2,-0.7,1.8,2470.068,13.33,0.086,277.3
2019-08-14T04:57:22,42.805,6.029,-0.019,0.021,-0.033,102.0,104.0,99.0,13.4,1505.3,324.2,-0.7,1.8,2470.082,13.33,0.028,317.9
2019-08-14T05:00:23,42.805,6.029,-0.04,-0.003,-0.008,101.0,104.0,100.0,13.4,1505.3,327.1,-0.7,1.8,2470.091,13.33,0.04,265.7
2019-08-14T05:03:24,42.805,6.029,-0.046,-0.002,-0.031,101.0,103.0,98.0,13.4,1505.3,326.5,-0.7,1.8,2470.049,13.33,0.046,267.5
2019-08-14T05:06:25,42.805,6.029,-0.027,0.002,-0.034,103.0,103.0,98.0,13.4,1505.3,323.6,-0.7,1.8,2470.037,13.33,0.027,274.2
2019-08-14T05:09:26,42.805,6.029,-0.038,0.004,-0.042,102.0,105.0,98.0,13.4,1505.3,322.7,-0.8,1.8,2470.106,13.33,0.038,276.0
2019-08-14T05:12:27,42.805,6.029,-0.036,0.015,-0.043,101.0,105.0,98.0,13.3,1505.3,325.4,-0.7,1.8,2470.08,13.33,0.039,292.6
2019-08-14T05:15:28,42.805,6.029,-0.021,0.006,-0.043,102.0,106.0,99.0,13.4,1505.3,326.6,-0.7,1.9,2470.085,13.33,0.021,285.9
2019-08-14T05:18:29,42.805,6.029,-0.01,0.028,0.005,103.0,103.0,99.0,13.3,1505.3,324.1,-0.7,1.8,2470.065,13.33,0.029,340.4
2019-08-14T05:21:30,42.805,6.029,-0.019,0.009,-0.025,103.0,105.0,99.0,13.4,1505.3,327.6,-0.7,1.8,2470.097,13.33,0.021,295.3
2019-08-14T05:24:31,42.805,6.029,-0.014,-0.001,0.019,103.0,107.0,98.0,13.4,1505.3,325.2,-0.7,1.8,2470.069,13.33,0.014,265.9
2019-08-14T05:27:32,42.805,6.029,-0.03,0.014,-0.007,103.0,107.0,98.0,13.4,1505.3,325.3,-0.7,1.8,2470.118,13.33,0.033,295.0
2019-08-14T05:30:33,42.805,6.029,-0.03,-0.006,-0.057,101.0,105.0,99.0,13.4,1505.3,325.5,-0.7,1.8,2470.102,13.33,0.03,258.7
2019-08-14T05:33:34,42.805,6.029,-0.054,0.008,-0.054,101.0,105.0,98.0,13.4,1505.3,324.0,-0.7,1.8,2470.109,13.33,0.054,278.4
2019-08-14T05:36:35,42.805,6.029,-0.037,-0.003,-0.007,101.0,106.0,98.0,13.4,1505.3,323.5,-0.7,1.8,2470.113,13.33,0.037,265.4
2019-08-14T05:39:36,42.805,6.029,-0.073,-0.003,-0.062,101.0,104.0,97.0,13.4,1505.3,324.9,-0.7,1.8,2470.058,13.33,0.073,267.6
2019-08-14T05:42:37,42.805,6.029,-0.068,0.009,-0.086,102.0,106.0,100.0,13.4,1505.3,328.4,-0.7,1.8,2470.124,13.33,0.068,277.5
2019-08-14T05:45:38,42.805,6.029,-0.033,0.021,-0.022,99.0,106.0,98.0,13.4,1505.3,325.9,-0.7,1.9,2470.127,13.33,0.039,302.5
2019-08-14T05:48:39,42.805,6.029,-0.008,0.004,-0.019,101.0,106.0,99.0,13.4,1505.3,324.9,-0.7,1.8,2470.059,13.33,0.008,296.6
2019-08-14T05:51:40,42.805,6.029,-0.023,0.007,-0.034,101.0,105.0,99.0,13.4,1505.3,327.6,-0.7,1.8,2470.083,13.33,0.024,286.9
2019-08-14T05:54:41,42.805,6.029,-0.028,0.009,-0.046,101.0,107.0,98.0,13.4,1505.3,326.6,-0.7,1.8,2470.095,13.33,0.029,287.8
2019-08-14T05:57:42,42.805,6.029,-0.03,0.014,-0.054,102.0,106.0,98.0,13.4,1505.3,325.9,-0.7,1.8,2470.106,13.33,0.033,295.0
2019-08-14T06:00:43,42.805,6.029,-0.045,-0.003,-0.045,101.0,106.0,99.0,13.4,1505.3,325.2,-0.7,1.8,2470.049,13.33,0.045,266.2
2019-08-14T06:03:44,42.805,6.029,-0.054,0.018,-0.068,102.0,105.0,97.0,13.4,1505.3,328.0,-0.7,1.9,2470.094,13.33,0.056,288.4
2019-08-14T06:06:45,42.805,6.029,-0.047,-0.005,-0.073,102.0,105.0,99.0,13.3,1505.3,323.4,-0.7,1.8,2470.13,13.33,0.047,263.9
2019-08-14T06:09:46,42.805,6.029,-0.074,0.001,-0.029,101.0,104.0,99.0,13.3,1505.3,324.2,-0.7,1.8,2470.123,13.33,0.074,270.8
2019-08-14T06:12:47,42.805,6.029,-0.035,0.007,-0.051,101.0,106.0,98.0,13.4,1505.3,325.2,-0.7,1.8,2470.14,13.33,0.035,281.3
2019-08-14T06:15:48,42.805,6.029,-0.014,0.002,0.002,102.0,107.0,98.0,13.4,1505.3,326.4,-0.7,1.8,2470.117,13.33,0.014,278.1
2019-08-14T06:18:49,42.805,6.029,-0.04,0.014,-0.039,102.0,106.0,99.0,13.4,1505.3,325.1,-0.7,1.8,2470.071,13.33,0.042,289.3
2019-08-14T06:21:50,42.805,6.029,-0.029,0.041,-0.042,101.0,106.0,98.0,13.4,1505.3,326.2,-0.7,1.9,2470.081,13.33,0.05,324.7
2019-08-14T06:24:51,42.805,6.029,-0.041,-0.001,-0.048,102.0,107.0,99.0,13.4,1505.3,324.1,-0.7,1.8,2470.075,13.33,0.041,268.6
2019-08-14T06:27:52,42.805,6.029,-0.015,-0.001,-0.027,102.0,107.0,99.0,13.4,1505.3,324.3,-0.7,1.8,2470.073,13.33,0.015,266.2
2019-08-14T06:30:53,42.805,6.029,-0.024,0.011,-0.041,102.0,105.0,99.0,13.4,1505.3,326.0,-0.7,1.8,2470.108,13.33,0.026,294.6
2019-08-14T06:33:54,42.805,6.029,-0.037,0.016,-0.048,101.0,107.0,98.0,13.3,1505.3,323.5,-0.7,1.9,2470.068,13.33,0.04,293.4
2019-08-14T06:36:55,42.805,6.029,-0.039,0.008,-0.059,102.0,107.0,98.0,13.4,1505.3,328.3,-0.7,1.8,2470.077,13.33,0.039,281.6
2019-08-14T06:39:56,42.805,6.029,-0.041,0.028,-0.028,101.0,107.0,98.0,13.4,1505.3,326.6,-0.7,1.8,2470.11,13.33,0.049,304.3
2019-08-14T06:42:57,42.805,6.029,-0.052,0.006,-0.041,101.0,107.0,99.0,13.4,1505.3,323.3,-0.7,1.8,2470.123,13.33,0.052,276.6
2019-08-14T06:45:58,42.805,6.029,-0.021,0.024,-0.006,102.0,106.0,98.0,13.4,1505.3,324.7,-0.7,1.8,2470.071,13.33,0.031,318.8
2019-08-14T06:48:59,42.805,6.029,0.018,0.036,0.008,101.0,106.0,98.0,13.3,1505.3,324.6,-0.7,1.8,2470.097,13.33,0.04,26.6
2019-08-14T06:52:00,42.805,6.029,-0.02,0.003,0.013,101.0,105.0,98.0,13.3,1505.3,325.6,-0.7,1.8,2470.075,13.33,0.02,278.5
2019-08-14T06:55:01,42.805,6.029,-0.015,0.008,-0.009,101.0,107.0,97.0,13.4,1505.3,327.6,-0.7,1.8,2470.068,13.33,0.017,298.1
2019-08-14T06:58:02,42.805,6.029,-0.016,0.017,0.006,102.0,107.0,97.0,13.4,1505.3,323.8,-0.7,1.8,2470.101,13.33,0.023,316.7
2019-08-14T07:01:03,42.805,6.029,-0.018,0.016,-0.026,102.0,106.0,98.0,13.4,1505.3,324.7,-0.7,1.9,2470.126,13.33,0.024,311.6
2019-08-14T07:04:04,42.805,6.029,-0.025,-0.004,-0.012,103.0,107.0,97.0,13.4,1505.3,325.5,-0.8,1.8,2470.12,13.33,0.025,260.9
2019-08-14T07:07:05,42.805,6.029,-0.014,0.022,0.024,101.0,106.0,99.0,13.4,1505.3,326.8,-0.7,1.8,2470.1,13.33,0.026,327.5
2019-08-14T07:10:06,42.805,6.029,-0.035,0.011,-0.011,102.0,107.0,98.0,13.3,1505.3,323.5,-0.7,1.9,2470.137,13.33,0.036,287.4
2019-08-14T07:13:07,42.805,6.029,-0.022,0.036,-0.021,102.0,107.0,98.0,13.4,1505.3,323.1,-0.7,1.8,2470.05,13.33,0.042,328.6
2019-08-14T07:16:08,42.805,6.029,-0.032,0.011,-0.041,100.0,107.0,98.0,13.3,1505.3,325.6,-0.7,1.8,2470.096,13.33,0.033,289.0
2019-08-14T07:19:09,42.805,6.029,-0.057,-0.013,-0.042,102.0,107.0,98.0,13.4,1505.3,324.4,-0.7,1.8,2470.098,13.33,0.058,257.2
2019-08-14T07:22:10,42.805,6.029,-0.055,0.022,-0.021,102.0,107.0,98.0,13.4,1505.3,324.1,-0.7,1.9,2470.058,13.33,0.059,291.8
2019-08-14T07:25:11,42.805,6.029,-0.02,0.016,-0.042,101.0,106.0,98.0,13.4,1505.3,324.9,-0.7,1.8,2470.091,13.33,0.025,308.7
2019-08-14T07:28:12,42.805,6.029,-0.024,0.023,-0.031,101.0,105.0,99.0,13.4,1505.3,323.4,-0.7,1.8,2470.059,13.33,0.033,313.8
2019-08-14T07:31:13,42.805,6.029,-0.011,0.025,0.02,101.0,107.0,99.0,13.3,1505.3,324.1,-0.7,1.8,2470.087,13.33,0.027,336.3
2019-08-14T07:34:14,42.805,6.029,-0.037,0.012,-0.041,101.0,107.0,99.0,13.3,1505.3,325.5,-0.7,1.8,2470.036,13.33,0.038,288.0
2019-08-14T07:37:15,42.805,6.029,-0.023,0.006,-0.058,102.0,105.0,97.0,13.4,1505.3,326.5,-0.7,1.9,2470.091,13.33,0.023,284.6
2019-08-14T07:40:16,42.805,6.029,-0.005,0.011,0.016,102.0,106.0,98.0,13.3,1505.3,324.9,-0.7,1.8,2470.05,13.33,0.012,335.6
2019-08-14T07:43:17,42.805,6.029,0.004,0.009,-0.02,101.0,107.0,98.0,13.4,1505.3,327.7,-0.7,1.8,2470.097,13.33,0.009,24.0
2019-08-14T07:46:18,42.805,6.029,0.0,0.012,0.005,101.0,107.0,98.0,13.4,1505.3,325.5,-0.7,1.8,2470.085,13.33,0.012,0.0
2019-08-14T07:49:19,42.805,6.029,-0.002,0.027,0.018,101.0,107.0,98.0,13.4,1505.3,325.6,-0.7,1.8,2470.068,13.33,0.027,355.8
2019-08-14T07:52:20,42.805,6.029,0.029,0.008,0.014,101.0,107.0,100.0,13.3,1505.3,326.3,-0.7,1.8,2470.046,13.33,0.03,74.6
2019-08-14T07:55:21,42.805,6.029,-0.002,0.027,0.009,101.0,106.0,98.0,13.3,1505.4,324.8,-0.7,1.8,2470.055,13.34,0.027,355.8
2019-08-14T07:58:22,42.805,6.029,0.008,0.01,-0.013,102.0,105.0,98.0,13.4,1505.4,323.3,-0.7,1.8,2470.064,13.34,0.012,38.7
2019-08-14T08:01:23,42.805,6.029,0.036,0.002,0.011,102.0,107.0,98.0,13.4,1505.4,323.2,-0.7,1.9,2470.051,13.34,0.036,86.8
2019-08-14T08:04:24,42.805,6.029,-0.003,-0.002,-0.029,101.0,107.0,99.0,13.4,1505.4,322.8,-0.7,1.8,2470.093,13.34,0.003,236.3
2019-08-14T08:07:25,42.805,6.029,-0.011,0.025,0.029,103.0,106.0,98.0,13.3,1505.4,328.1,-0.8,1.8,2470.068,13.34,0.027,336.3
2019-08-14T08:10:26,42.805,6.029,0.003,0.006,-0.009,101.0,106.0,97.0,13.3,1505.4,325.4,-0.7,1.8,2470.043,13.34,0.006,26.6
2019-08-14T08:13:27,42.805,6.029,-0.013,0.019,-0.012,103.0,107.0,97.0,13.4,1505.4,327.8,-0.7,1.8,2470.084,13.34,0.023,325.6
2019-08-14T08:16:28,42.805,6.029,-0.022,0.029,0.004,100.0,108.0,99.0,13.3,1505.4,326.2,-0.8,1.8,2470.067,13.34,0.036,322.8
2019-08-14T08:19:29,42.805,6.029,0.018,0.033,0.021,101.0,109.0,98.0,13.4,1505.4,326.7,-0.7,1.8,2470.11,13.34,0.037,28.6
2019-08-14T08:22:30,42.805,6.029,0.019,0.014,0.01,102.0,109.0,99.0,13.4,1505.4,326.9,-0.7,1.8,2470.057,13.34,0.023,53.6
2019-08-14T08:25:31,42.805,6.029,-0.027,0.005,-0.01,104.0,107.0,98.0,13.3,1505.4,324.4,-0.7,1.8,2470.02,13.34,0.027,280.5
2019-08-14T08:28:32,42.805,6.029,-0.024,0.008,-0.025,102.0,107.0,99.0,13.4,1505.4,327.1,-0.7,1.8,2470.068,13.34,0.025,288.4
2019-08-14T08:31:33,42.805,6.029,0.014,0.026,0.029,101.0,107.0,98.0,13.4,1505.4,325.4,-0.7,1.8,2470.04,13.34,0.029,28.3
2019-08-14T08:34:34,42.805,6.029,-0.002,0.032,-0.011,102.0,105.0,100.0,13.3,1505.4,323.6,-0.7,1.8,2470.001,13.34,0.032,356.4
2019-08-14T08:37:35,42.805,6.029,-0.004,0.027,-0.03,100.0,107.0,97.0,13.3,1505.4,325.1,-0.7,1.8,2470.087,13.34,0.027,351.6
2019-08-14T08:40:36,42.805,6.029,-0.008,0.0,0.003,101.0,105.0,99.0,13.3,1505.4,327.2,-0.7,1.9,2470.012,13.34,0.008,270.0
2019-08-14T08:43:37,42.805,6.029,-0.023,0.017,-0.019,101.0,106.0,99.0,13.3,1505.4,325.6,-0.7,1.9,2470.043,13.34,0.028,306.5
2019-08-14T08:46:38,42.805,6.029,-0.01,0.03,0.016,102.0,105.0,99.0,13.4,1505.4,325.8,-0.7,1.8,2470.012,13.34,0.031,341.6
2019-08-14T08:49:39,42.805,6.029,-0.01,0.001,-0.002,101.0,105.0,100.0,13.3,1505.4,323.4,-0.7,1.8,2470.014,13.34,0.01,275.7
2019-08-14T08:52:40,42.805,6.029,0.018,0.019,0.002,101.0,106.0,99.0,13.4,1505.4,323.3,-0.7,1.8,2470.045,13.34,0.026,43.5
2019-08-14T08:55:41,42.805,6.029,-0.015,0.02,-0.061,100.0,107.0,98.0,13.3,1505.4,324.8,-0.7,1.8,2470.06,13.34,0.025,323.1
2019-08-14T08:58:42,42.805,6.029,-0.042,0.012,-0.024,102.0,106.0,98.0,13.3,1505.4,327.0,-0.7,1.8,2470.044,13.34,0.043,285.9
2019-08-14T09:01:43,42.805,6.029,0.012,-0.002,-0.003,100.0,108.0,99.0,13.3,1505.4,325.2,-0.7,1.8,2470.032,13.34,0.012,99.5
2019-08-14T09:04:44,42.805,6.029,0.017,0.017,-0.002,102.0,104.0,98.0,13.4,1505.4,324.7,-0.7,1.8,2470.021,13.34,0.024,45.0
2019-08-14T09:07:45,42.805,6.029,-0.015,0.028,-0.023,102.0,105.0,97.0,13.4,1505.4,322.9,-0.7,1.9,2470.043,13.34,0.031,331.8
2019-08-14T09:10:46,42.805,6.029,-0.026,0.002,-0.041,103.0,105.0,97.0,13.4,1505.4,326.2,-0.7,1.8,2470.053,13.34,0.026,274.4
2019-08-14T09:13:47,42.805,6.029,0.001,0.009,-0.008,101.0,104.0,98.0,13.4,1505.4,324.5,-0.7,1.8,2470.031,13.34,0.009,6.3
2019-08-14T09:16:48,42.805,6.029,-0.005,0.034,-0.009,103.0,105.0,98.0,13.4,1505.4,324.0,-0.7,1.8,2470.055,13.34,0.034,351.6
2019-08-14T09:19:49,42.805,6.029,-0.029,0.029,-0.024,100.0,106.0,99.0,13.4,1505.4,324.9,-0.7,1.8,2469.989,13.34,0.041,315.0
2019-08-14T09:22:50,42.805,6.029,-0.011,0.019,0.004,102.0,104.0,98.0,13.4,1505.4,322.8,-0.7,1.8,2470.02,13.34,0.021,329.9
2019-08-14T09:25:51,42.805,6.029,-0.014,0.012,0.0,100.0,105.0,99.0,13.3,1505.4,323.2,-0.7,1.8,2470.021,13.34,0.018,310.6
2019-08-14T09:28:52,42.805,6.029,-0.007,0.014,-0.01,101.0,106.0,99.0,13.3,1505.4,326.6,-0.7,1.8,2469.977,13.34,0.015,333.4
2019-08-14T09:31:53,42.805,6.029,-0.022,0.006,-0.03,99.0,105.0,98.0,13.3,1505.4,324.8,-0.7,1.8,2469.984,13.34,0.022,285.3